Theta_e
327 328 327 328 329 331 332 334 334 333 333 333 333 332 332 332 332 333 332 332 331 330 328 330 328 329 328 328 327 328 327 328 330 331 330 329 328 328 328 328 326 326 327 330 329 331 332 332 333 334 335 333 331 331 330 330 332 331 328 323 320 322 321 316 312 313 318 318 316 312 314 315 313 315 314 316 313 313 315 318 313 313 314 316 312
329 328 329 329 330 331 331 333 334 334 333 332 332 331 332 332 332 332 332 332 331 328 328 329 328 328 326 327 327 326 325 325 328 330 328 328 328 327 327 326 326 326 327 325 327 329 333 332 332 333 333 331 331 326 325 327 328 327 324 323 318 319 322 316 313 313 316 319 315 316 313 316 313 315 316 317 315 314 315 318 317 316 317 319 317
329 330 329 329 330 331 332 332 333 334 333 332 330 331 331 331 331 331 331 331 331 329 328 328 327 326 325 327 327 325 323 323 327 328 328 328 327 327 327 326 325 325 326 325 324 326 329 333 333 334 333 332 329 326 327 327 324 322 322 321 319 318 318 318 316 314 314 314 318 315 316 315 316 314 315 317 318 316 315 316 316 316 317 319 318
329 329 327 328 328 329 331 332 334 334 333 331 329 331 331 331 331 331 330 330 328 328 327 327 326 325 324 325 325 323 322 322 324 325 325 326 326 326 325 325 325 325 323 322 322 325 327 331 333 334 334 331 327 325 326 325 323 321 321 322 322 318 320 321 320 318 315 313 315 314 315 315 315 317 316 317 317 316 316 316 317 316 316 316 317
328 329 328 328 329 329 331 333 332 330 332 330 331 331 331 331 332 330 330 329 327 326 326 326 324 323 324 323 322 322 321 320 322 323 325 326 326 326 325 324 324 324 324 323 325 325 327 331 332 334 334 332 328 327 324 325 321 321 321 320 320 321 321 320 319 319 317 315 315 316 316 316 315 317 316 314 315 316 316 315 315 315 316 317 316
328 329 330 329 329 331 331 331 329 329 329 332 333 332 331 331 330 329 327 325 324 324 323 322 321 321 322 321 322 321 320 320 319 321 323 324 325 326 326 325 323 323 323 323 323 324 326 327 333 334 333 332 328 327 326 325 321 322 321 319 319 320 322 321 320 320 318 316 317 315 317 315 315 316 316 316 315 313 313 314 315 315 315 316 315
329 331 329 329 329 328 329 329 330 330 330 331 332 330 330 330 328 326 324 322 322 321 321 321 321 320 320 321 320 320 319 319 320 321 321 322 323 323 324 325 325 324 323 322 323 324 324 326 332 334 334 333 331 329 328 328 325 324 323 323 320 321 321 321 319 319 319 318 318 317 316 317 317 314 314 316 315 314 314 313 313 314 316 316 314
329 330 330 328 326 326 328 330 330 329 329 329 328 329 328 327 326 324 323 323 322 321 321 321 321 319 319 319 319 320 319 319 319 320 320 321 321 321 321 322 324 324 325 323 324 324 324 325 327 331 334 335 334 332 331 329 327 326 326 326 324 322 321 320 320 318 318 319 317 317 316 315 315 317 315 314 313 313 314 314 313 313 315 316 317
327 328 328 326 326 327 327 328 329 329 328 327 326 326 326 325 323 322 322 323 322 321 322 321 320 320 320 321 320 322 323 323 323 323 323 320 321 321 321 319 321 323 324 324 323 322 323 324 325 326 334 322 312 317 318 318 326 323 324 325 324 322 322 320 319 318 318 317 317 318 316 315 316 316 314 313 311 312 316 316 315 316 315 315 316
325 325 325 325 326 325 327 327 327 326 326 326 326 326 326 326 326 325 324 323 324 324 323 323 322 322 322 322 324 326 326 320 304 296 299 319 323 321 321 322 319 321 321 322 322 322 323 324 326 317 312 313 310 306 305 308 311 321 328 324 323 322 321 320 318 318 317 315 315 316 315 315 316 317 316 316 316 317 315 316 314 314 316 315 316
322 322 322 323 324 324 324 323 324 324 324 325 325 324 324 326 326 325 326 326 327 326 325 323 323 323 324 325 324 321 315 307 294 292 294 292 317 322 322 322 322 321 321 321 320 321 322 323 326 320 319 314 314 299 301 300 301 301 302 307 313 328 322 319 319 320 317 317 317 316 315 315 316 318 317 317 318 316 315 316 315 315 314 312 310
314 317 319 318 317 316 318 319 319 319 319 319 318 317 317 318 318 319 321 322 323 326 326 326 326 326 324 323 321 317 311 296 292 294 293 292 296 318 322 322 322 322 323 322 322 322 322 324 325 326 326 331 327 320 308 299 298 298 298 299 301 301 301 323 323 319 319 317 315 316 316 316 315 317 316 317 316 317 317 317 316 315 314 313 312
308 309 311 313 314 313 313 312 313 313 313 313 314 314 314 314 315 316 317 319 322 323 324 325 323 321 318 315 314 312 309 293 293 292 294 293 294 305 323 322 321 321 322 321 323 323 323 323 324 325 323 317 318 321 325 323 299 295 298 298 297 296 297 296 297 319 323 319 317 317 317 317 316 316 319 318 320 317 317 316 316 316 315 313 313
306 306 307 308 309 310 311 310 310 310 312 313 313 312 313 312 315 316 317 319 320 321 322 321 320 318 316 313 310 308 306 295 292 291 293 292 294 300 326 324 324 322 321 322 322 322 322 321 321 322 324 324 323 323 323 324 326 321 320 320 322 315 297 295 295 293 304 319 320 318 320 321 318 319 321 322 320 317 316 315 318 316 315 314 317
303 304 304 305 306 308 307 307 307 307 307 308 309 309 310 310 310 312 313 313 313 314 315 315 316 317 316 313 310 307 302 291 292 291 292 292 292 297 328 328 325 326 326 327 326 326 325 324 323 321 322 322 323 323 323 322 323 323 323 323 324 323 326 325 322 321 320 320 321 322 322 323 323 324 325 324 325 323 321 319 320 319 319 322 317
302 302 302 302 303 303 304 304 304 305 305 304 303 304 306 307 307 308 309 309 310 310 310 311 311 314 314 313 310 306 302 291 291 292 292 292 292 321 324 325 325 325 327 328 327 328 328 328 327 325 326 325 311 301 308 323 323 323 321 322 322 322 324 319 312 316 326 330 326 326 329 327 305 326 327 327 326 325 321 321 321 320 317 314 312
300 301 301 301 301 302 302 302 302 302 303 303 303 303 304 305 305 307 306 306 305 305 307 307 309 310 311 311 310 307 304 295 291 291 292 290 304 320 321 321 322 323 324 324 325 326 327 327 328 327 327 328 304 300 296 300 323 323 322 323 322 322 322 326 300 295 293 293 293 292 292 293 296 296 297 296 315 318 321 317 315 317 314 311 311
298 299 300 300 301 301 301 301 301 301 301 301 302 302 302 302 304 305 306 305 306 305 306 306 306 306 306 308 309 307 304 296 291 292 292 291 297 316 316 318 318 319 320 321 322 323 323 309 316 322 325 320 293 298 292 306 322 324 324 323 323 322 323 326 322 315 291 292 293 292 293 294 293 294 295 296 297 304 318 315 317 316 314 313 311
297 297 298 300 300 301 301 301 301 301 301 301 302 302 302 303 303 305 306 307 307 307 306 306 305 305 305 306 305 308 307 300 291 291 291 291 299 313 313 314 315 317 316 316 319 319 321 316 306 308 312 303 291 294 292 301 321 324 325 324 323 324 325 327 326 323 319 316 316 314 311 303 310 315 314 296 295 302 317 319 319 317 314 313 313
297 298 298 299 299 300 301 301 301 301 300 301 302 302 303 304 305 305 305 306 306 306 306 306 305 305 306 307 307 308 308 306 297 291 291 292 291 304 312 311 311 311 312 312 312 315 316 319 307 293 293 292 293 291 294 292 309 320 323 324 322 322 326 325 326 326 324 321 321 320 319 320 318 317 319 313 309 310 315 318 319 319 317 315 313
297 297 297 297 297 297 298 299 299 300 301 301 302 302 303 303 303 304 303 304 305 304 305 305 306 306 306 307 307 305 305 307 301 290 291 291 290 294 310 308 307 307 308 308 310 311 312 313 317 293 290 290 291 290 291 292 292 307 316 321 323 312 306 324 325 308 323 323 322 321 321 320 319 318 317 316 312 313 313 315 318 319 317 315 313
297 298 297 297 297 297 298 298 298 298 299 300 301 301 302 302 302 302 302 302 303 303 304 305 305 305 306 305 306 306 302 298 304 293 290 291 290 289 302 305 299 303 305 307 307 309 310 311 313 297 289 290 290 290 290 291 291 301 309 300 296 295 310 314 321 321 321 321 320 319 319 317 317 316 315 315 312 311 313 314 315 316 316 316 314
297 297 298 298 298 298 298 298 298 299 299 300 300 300 301 302 302 302 303 303 303 303 303 303 304 303 305 305 306 306 305 302 294 299 290 291 289 289 287 295 290 301 304 305 306 306 309 309 308 293 290 290 291 290 291 290 291 301 296 294 294 293 297 312 314 316 316 317 316 316 315 316 315 314 313 312 312 312 311 312 312 312 312 311 309
297 297 297 298 298 298 299 299 300 300 300 300 300 300 300 301 301 302 302 301 301 301 301 302 302 301 301 302 303 303 304 305 295 293 295 289 291 290 289 286 286 298 300 301 304 305 307 308 300 290 290 290 290 291 291 291 295 293 292 293 293 293 303 306 308 311 310 312 313 313 313 314 314 314 311 312 311 311 311 311 311 310 310 308 306
297 297 297 297 297 298 299 300 300 300 301 301 301 301 301 302 301 302 303 302 302 301 300 300 300 300 301 302 302 303 304 304 305 296 291 292 290 289 289 288 288 287 298 302 303 304 295 289 290 290 291 290 290 290 291 292 290 289 289 290 293 302 305 306 308 311 311 311 312 313 312 313 314 315 317 316 313 311 309 308 307 306 304 303 302
297 298 298 298 298 299 300 301 301 302 302 302 302 302 302 302 301 302 302 302 302 302 301 301 301 302 302 302 302 303 304 305 305 305 298 296 294 289 289 289 291 290 292 298 292 289 289 290 288 288 290 293 300 304 306 307 296 292 292 292 304 305 306 307 307 308 309 311 311 311 313 314 315 312 310 309 307 306 305 303 302 300 300 300 298
298 298 299 299 299 299 299 300 301 302 303 303 303 303 302 303 303 301 302 302 302 301 302 301 301 301 302 302 302 303 304 303 304 304 302 301 301 300 299 300 292 291 297 302 297 300 299 297 298 294 294 292 292 292 295 296 301 304 307 307 308 307 307 307 308 308 308 309 310 311 312 311 307 305 305 304 305 304 304 301 301 300 299 298 295
298 298 298 298 299 299 299 293 297 301 301 302 301 302 302 303 302 301 301 301 301 301 302 301 301 301 301 302 302 302 302 303 303 300 299 298 299 299 300 300 302 302 301 301 300 299 299 294 296 301 302 304 305 306 307 308 308 305 307 307 307 306 303 300 300 308 309 310 310 311 309 307 305 305 304 303 303 304 303 300 300 298 297 297 294
298 298 298 298 298 299 299 300 300 300 301 302 300 299 299 300 301 302 302 300 298 298 300 301 300 301 301 301 301 301 301 302 300 291 294 289 291 296 297 298 299 299 295 289 295 298 300 300 300 301 302 299 299 301 303 304 303 306 307 307 307 308 307 306 305 305 306 306 306 305 304 305 303 304 302 302 301 300 301 300 299 298 296 296 294
298 298 298 298 298 299 299 299 300 299 300 300 301 298 288 289 293 297 299 291 289 288 289 296 297 298 299 301 302 299 299 299 290 289 289 289 289 288 288 288 288 292 290 288 290 295 296 297 298 299 298 299 299 298 299 301 300 301 301 299 301 304 303 305 305 304 303 301 305 301 299 298 298 299 300 300 300 299 299 296 297 296 294 294 293
297 297 296 296 295 298 298 298 299 299 300 299 300 296 300 296 289 288 289 290 289 288 288 288 287 287 293 298 298 293 291 289 288 289 288 289 288 288 288 288 288 288 288 291 294 296 297 297 298 298 298 300 298 298 299 299 299 300 301 301 300 301 299 300 302 299 300 299 298 299 296 298 297 298 297 297 296 296 297 296 296 295 294 294 293
297 297 297 297 297 298 298 298 299 299 299 299 299 299 299 299 299 291 289 291 291 289 289 288 288 289 288 290 293 298 293 290 288 288 288 288 288 288 288 288 288 288 288 287 292 297 298 298 297 298 298 298 297 297 298 298 299 298 298 300 299 301 300 300 299 302 297 297 297 296 296 297 296 296 295 293 292 294 294 293 293 292 294 295 294
298 298 298 297 297 297 297 298 299 299 299 299 300 299 298 298 297 298 295 289 289 290 289 289 289 289 289 288 288 287 287 287 287 288 288 288 288 288 288 287 288 287 285 291 296 296 297 297 298 299 299 297 297 299 299 300 299 299 300 300 301 302 303 302 296 302 298 299 297 298 297 296 295 293 292 292 291 291 292 292 293 293 293 290 290
299 299 299 298 298 298 298 298 298 298 299 299 299 299 298 299 298 298 298 299 296 292 289 289 289 289 288 288 288 288 287 287 288 288 288 288 288 287 288 291 289 287 289 296 296 296 297 297 297 298 299 298 299 298 298 298 299 300 299 302 302 304 304 305 303 300 299 298 297 296 295 295 294 293 293 292 291 291 290 290 291 290 290 290 290
298 291 286 291 299 298 298 298 298 298 298 299 298 298 299 298 298 298 297 297 298 298 299 295 290 290 293 291 290 288 288 288 288 288 288 288 288 288 287 294 296 294 296 300 298 298 297 297 297 297 298 298 298 296 298 300 300 299 299 298 301 302 300 298 299 299 296 297 296 295 294 292 292 291 291 290 290 290 290 290 290 291 291 291 291
298 298 298 297 297 298 298 299 298 298 298 298 299 298 297 297 297 298 297 296 297 297 298 301 299 290 288 290 288 289 289 289 288 288 288 288 289 288 295 296 295 296 295 297 297 297 297 298 299 299 299 299 300 299 299 298 299 299 300 299 298 298 297 298 296 295 294 293 293 291 291 292 292 291 292 290 290 290 290 290 290 290 290 290 291
298 298 298 298 298 298 298 299 298 297 294 295 298 298 297 298 297 298 299 297 295 298 299 299 299 299 294 296 293 291 290 289 289 289 288 289 288 295 298 296 297 297 295 297 296 297 297 298 299 299 300 299 299 298 296 297 298 298 295 296 297 295 296 295 295 293 293 292 292 291 291 291 291 291 291 290 290 291 291 290 290 289 289 289 289
298 298 298 298 299 298 298 298 297 291 295 296 298 298 297 298 298 297 295 295 294 295 298 297 294 297 295 296 296 295 296 293 292 291 291 292 295 297 297 297 297 296 296 297 297 297 297 298 298 298 298 298 297 297 296 295 295 294 294 292 291 291 290 291 289 290 290 291 290 291 291 291 292 292 292 291 291 291 291 291 290 289 289 288 289
299 290 286 287 290 297 298 296 296 297 297 296 297 296 294 295 296 296 296 296 295 295 295 298 297 295 295 296 296 295 296 297 295 295 295 296 296 297 298 297 297 296 296 296 296 296 297 296 296 297 296 296 295 295 294 293 292 292 291 291 291 291 291 291 290 290 290 290 290 290 290 290 291 291 291 291 290 290 290 290 290 290 289 289 289
298 298 293 288 294 295 295 294 295 296 296 297 296 296 295 295 295 295 295 295 294 294 295 294 295 296 295 293 291 293 295 294 294 295 294 294 294 294 297 296 295 294 295 295 296 296 296 296 296 296 295 295 295 294 293 292 291 290 290 290 289 288 288 289 288 289 289 290 290 290 290 290 290 290 290 290 290 290 289 289 289 289 290 289 289
299 298 293 292 291 297 296 295 296 296 297 295 296 296 296 294 296 294 295 294 293 294 294 294 295 296 293 288 286 286 293 295 295 295 294 293 293 294 294 295 294 294 294 293 294 294 295 296 295 295 293 293 294 292 292 292 292 292 291 290 290 289 288 288 288 287 288 288 289 290 290 289 290 290 289 290 289 290 290 290 290 290 290 290 289
298 297 297 297 295 296 296 294 295 295 295 295 295 294 293 294 295 294 293 292 292 292 293 293 295 295 289 284 287 286 293 295 294 294 296 294 293 294 293 294 294 293 292 292 293 291 292 293 292 293 292 292 292 292 292 291 291 292 292 293 292 290 289 289 288 288 288 288 288 288 289 290 290 290 289 289 290 290 290 290 290 290 290 290 290
299 298 297 297 296 296 295 295 295 295 294 293 293 291 292 293 294 293 293 293 293 293 293 292 294 295 293 288 288 288 295 294 290 293 292 293 293 292 293 293 293 293 292 292 292 292 292 292 291 291 290 290 291 291 291 291 293 294 293 292 292 291 290 289 289 289 289 288 288 288 289 289 289 290 290 290 290 290 290 290 289 289 289 289 289
298 297 296 295 296 296 295 295 294 293 293 291 291 292 294 293 293 293 293 293 292 292 292 293 293 293 293 294 292 293 294 294 293 292 291 290 291 292 293 291 291 291 291 290 290 290 290 291 291 291 290 291 292 292 292 293 294 293 293 293 292 291 291 291 290 289 289 288 288 289 290 290 290 290 289 289 290 290 289 289 289 289 290 290 290
299 298 296 296 297 296 296 295 294 293 291 291 293 294 293 294 294 292 293 293 292 293 292 292 293 293 294 293 294 293 294 294 292 291 290 291 290 292 292 291 290 289 289 288 288 288 289 289 290 290 291 292 294 294 294 294 294 293 294 293 293 292 292 291 292 292 291 290 290 290 290 290 290 290 290 290 289 289 289 289 289 288 289 289 289
297 297 296 296 295 295 295 295 293 294 292 292 292 293 293 293 293 293 293 294 292 292 292 292 291 292 292 293 292 292 293 294 293 292 291 291 291 292 292 290 289 288 287 287 286 286 287 288 289 289 289 290 292 294 294 295 295 295 295 293 292 293 293 292 292 291 291 290 291 291 291 290 290 290 289 290 290 290 290 289 289 289 289 289 289
298 297 296 297 295 294 294 295 294 293 293 292 292 292 292 293 294 292 291 292 293 293 292 293 291 293 292 292 292 292 292 292 292 292 291 291 291 291 289 288 287 287 286 285 285 286 285 286 286 286 286 287 288 290 292 292 295 295 294 293 294 293 293 293 292 290 291 289 290 291 291 290 290 290 290 290 290 290 289 289 289 288 289 289 289
298 296 296 295 295 295 295 295 293 290 293 292 292 292 292 293 293 293 293 294 294 293 293 293 293 293 293 293 293 292 291 291 292 291 291 291 291 289 288 287 287 286 285 285 285 285 284 284 285 285 285 286 287 288 290 292 293 292 292 292 289 287 286 286 291 291 291 291 291 291 291 291 291 290 290 290 290 290 289 289 289 289 289 289 289
297 297 296 296 296 295 295 294 294 294 294 293 292 292 292 293 293 293 293 294 293 293 294 293 293 294 294 293 292 292 291 291 292 291 291 290 290 290 288 287 286 286 285 284 285 285 284 284 284 285 286 287 287 288 289 289 291 291 290 289 285 282 284 283 288 291 289 291 292 292 291 291 290 290 290 290 290 290 289 289 289 288 289 289 289
297 296 296 295 295 295 295 295 295 295 294 294 294 293 292 293 292 292 293 294 294 294 294 294 293 293 293 292 292 292 293 292 291 291 291 291 291 290 288 287 287 287 286 285 286 286 287 286 286 286 287 288 289 289 290 289 289 288 287 285 282 283 283 284 285 284 290 293 291 292 292 291 290 291 291 290 290 289 289 289 289 289 289 289 288
296 296 296 295 295 295 295 295 294 294 295 294 294 293 292 293 293 293 293 293 294 294 294 294 294 293 293 293 292 293 292 293 292 293 293 291 291 290 289 288 287 287 286 286 287 287 287 286 287 287 287 288 288 289 289 288 286 284 281 281 281 281 281 283 287 286 284 288 292 292 291 290 290 290 290 291 290 290 289 289 289 289 290 289 289
Wind_Speed
11 8 8 8 9 9 9 8 9 10 11 12 10 10 10 9 9 8 8 7 7 7 7 7 7 6 6 7 7 5 5 4 4 4 4 5 4 4 4 4 5 5 5 5 4 5 5 6 7 6 6 6 5 5 5 5 5 5 5 6 3 4 4 4 8 9 6 5 6 7 9 9 9 9 9 7 9 7 7 7 9 8 8 6 8
13 11 8 8 9 9 9 7 8 8 11 11 10 9 9 9 9 8 8 7 7 7 7 6 6 6 6 7 7 6 5 5 4 4 5 5 5 3 4 4 3 4 3 4 4 3 3 5 6 6 7 5 4 6 6 6 7 7 7 6 5 5 5 5 8 8 8 5 7 7 8 9 7 9 9 8 10 10 9 7 7 9 7 6 6
12 9 9 8 8 9 9 8 8 9 10 10 10 10 9 9 8 8 8 7 6 6 7 7 6 6 6 7 7 6 5 5 3 4 4 6 6 5 3 4 4 4 5 4 5 4 4 4 6 6 6 6 5 5 5 7 8 7 7 6 5 6 5 3 7 8 8 7 6 7 8 8 7 9 10 9 9 9 10 9 8 7 6 5 5
10 7 7 8 9 9 9 9 10 9 10 9 10 10 9 8 8 9 8 7 7 6 7 7 6 6 7 7 7 6 5 5 5 4 5 5 5 6 5 5 5 5 5 5 4 4 5 5 6 7 7 7 7 7 6 7 7 7 7 6 5 5 5 2 4 6 7 8 8 7 8 8 8 7 8 8 9 9 8 8 8 7 7 6 6
14 11 9 9 10 9 10 10 10 9 4 6 9 9 9 9 8 9 8 8 7 7 7 6 6 7 6 7 7 6 5 5 5 4 4 3 4 4 4 4 4 4 4 5 3 3 5 5 7 7 7 7 6 5 7 8 7 7 7 7 6 6 5 5 5 3 5 6 7 6 7 8 8 7 8 9 9 9 9 8 7 7 7 6 4
12 12 11 11 11 12 12 12 13 12 9 7 9 9 9 8 8 8 8 8 8 7 7 6 6 7 7 6 6 5 5 4 5 5 5 5 4 3 4 4 4 4 4 4 4 3 3 5 6 8 8 7 8 7 8 9 7 7 7 7 7 6 6 6 6 4 5 5 6 6 6 7 8 7 8 8 8 8 8 8 8 7 7 7 5
12 11 12 10 10 10 9 13 11 10 8 7 7 9 9 8 8 7 7 8 8 8 7 7 6 6 6 5 5 5 5 4 4 4 5 5 4 4 4 4 4 3 3 4 3 3 4 5 6 7 8 7 8 7 7 8 6 6 6 5 5 6 6 6 7 7 6 6 5 7 7 7 7 7 8 9 8 8 7 7 8 7 7 7 7
10 11 11 11 10 8 6 4 9 10 9 8 8 9 9 9 8 7 7 7 7 7 7 7 5 5 6 5 5 4 5 4 4 4 4 4 4 3 4 3 4 4 3 3 3 3 3 4 4 5 6 7 6 6 6 7 6 6 5 5 5 5 6 6 7 7 7 7 7 6 7 7 8 7 7 8 8 8 9 8 8 8 8 8 9
11 11 10 11 12 11 10 10 8 9 9 8 9 9 9 9 8 8 8 7 6 7 7 7 6 6 5 5 4 3 2 3 5 5 2 4 3 3 2 3 4 4 4 4 3 3 4 4 3 4 5 7 9 7 6 4 3 6 5 4 5 6 6 5 6 6 7 7 7 6 6 7 7 7 8 8 10 10 8 9 8 8 8 8 9
10 11 10 10 10 11 10 10 11 11 11 10 9 9 9 8 8 8 7 7 6 5 6 5 6 6 5 5 5 4 5 4 8 11 9 6 1 2 2 3 4 4 4 4 4 3 3 4 5 7 5 4 3 2 1 1 4 4 2 4 4 5 4 5 5 5 5 6 6 6 7 7 7 8 9 9 9 9 8 9 10 9 8 8 7
11 11 11 10 8 8 11 12 12 13 11 9 8 9 8 6 6 6 6 6 6 5 4 5 5 6 6 6 7 6 5 5 11 7 9 10 7 2 2 2 2 3 4 4 4 4 4 4 5 6 5 5 4 5 4 4 4 3 5 7 7 3 5 6 5 4 5 5 6 6 7 7 8 8 9 9 9 9 9 9 9 9 9 9 10
11 11 11 10 11 12 10 9 11 10 8 8 9 7 7 7 6 6 5 6 5 4 5 6 7 8 8 8 8 7 6 9 10 10 8 8 6 4 2 2 3 3 3 3 3 3 3 3 2 2 2 2 2 6 5 6 5 3 3 5 6 9 7 5 4 5 5 5 6 6 6 7 7 7 8 8 8 9 9 10 9 10 11 10 10
10 11 10 11 11 9 10 9 8 9 9 8 8 8 7 8 7 7 6 5 5 5 6 7 8 8 9 9 8 7 6 9 10 9 9 8 8 7 2 2 3 3 2 2 1 1 1 1 1 1 2 5 4 4 4 6 6 3 2 4 7 8 10 10 7 6 6 6 7 8 7 6 8 8 7 8 7 8 8 9 10 10 11 12 10
11 11 10 10 10 8 9 10 8 7 7 8 8 8 7 7 6 6 6 6 7 7 7 8 8 9 8 9 8 8 7 9 9 9 8 8 8 9 0 1 0 1 1 1 1 2 1 2 2 3 3 3 3 3 3 3 5 6 6 6 7 8 10 11 11 10 7 6 8 8 7 7 8 8 7 6 7 8 9 9 9 10 10 12 10
12 11 10 9 9 9 10 10 9 8 9 9 9 9 8 7 7 6 5 6 6 7 7 7 7 7 8 8 8 8 7 9 10 10 10 8 7 9 0 0 2 2 2 1 1 1 2 2 3 4 3 4 2 1 3 4 4 5 6 6 7 7 7 8 8 7 7 7 8 8 8 9 8 7 7 5 7 8 8 8 7 7 8 2 6
13 11 10 9 10 9 10 10 10 8 9 9 9 9 8 7 7 7 6 6 6 6 6 7 7 7 7 7 7 8 7 11 11 12 12 11 11 4 1 1 0 1 1 1 2 3 3 3 3 4 3 5 8 6 3 5 5 6 7 8 8 8 8 2 4 3 4 5 6 6 4 3 5 4 4 4 5 5 1 2 4 5 6 6 8
13 12 10 10 10 10 10 10 9 9 9 9 9 8 7 6 5 5 6 5 6 6 6 6 6 7 6 6 6 6 7 10 11 12 13 14 10 1 0 1 1 0 1 1 2 1 2 2 3 3 4 1 8 5 1 3 6 7 8 9 8 8 9 4 4 4 4 4 4 5 6 7 8 6 6 7 6 3 6 7 9 8 9 10 10
10 9 9 9 9 9 10 10 9 9 8 9 8 7 6 4 4 3 4 7 6 6 6 6 6 6 7 6 5 5 6 8 11 12 13 14 12 4 2 1 1 1 2 2 3 3 3 7 6 4 3 7 9 9 4 4 7 8 8 9 10 10 10 6 4 4 3 1 3 5 5 7 7 8 9 9 10 8 9 11 10 8 10 10 11
9 9 9 9 9 9 8 8 8 8 8 7 6 7 6 5 3 3 3 4 5 5 5 5 5 5 5 5 5 3 5 7 10 10 12 13 11 5 3 2 2 1 2 2 2 4 2 5 2 6 7 8 10 8 9 7 7 8 9 9 11 11 10 10 7 7 6 6 7 6 7 6 6 7 7 10 9 10 11 11 11 10 11 11 10
8 8 9 9 8 8 8 8 7 7 7 7 6 6 4 4 4 4 3 3 4 4 4 5 5 4 4 4 3 3 3 5 8 9 10 11 13 8 3 3 2 2 3 3 3 3 3 2 7 8 11 10 10 8 9 8 7 9 9 9 10 11 9 10 11 9 8 9 8 9 9 8 7 8 7 6 7 10 11 11 10 10 10 11 10
7 7 8 8 9 9 7 8 8 7 6 6 5 5 5 5 4 4 4 4 4 4 4 3 4 4 3 2 3 4 4 3 7 8 8 8 10 11 3 4 4 4 4 5 4 4 3 3 7 8 9 8 8 8 7 9 8 8 9 10 8 7 12 9 8 6 10 9 9 9 8 8 7 7 7 7 7 8 9 10 9 9 10 10 10
6 6 7 7 7 7 7 7 7 6 6 6 6 5 5 5 4 4 3 4 4 3 3 2 2 2 3 2 2 2 5 5 4 8 7 6 6 10 6 5 6 6 6 5 5 4 4 3 1 7 10 9 8 6 6 7 8 6 9 13 18 17 10 9 10 9 9 9 10 10 9 9 8 8 8 7 7 8 7 7 7 7 7 7 9
6 6 6 7 7 7 6 6 5 4 5 5 5 4 3 4 4 4 3 3 3 3 3 2 1 2 1 2 2 2 2 5 3 4 6 4 3 2 4 5 4 6 5 6 5 6 5 6 3 14 13 13 13 12 10 8 9 9 11 12 12 14 11 8 9 10 11 12 10 10 9 10 9 7 7 6 6 6 6 6 6 5 3 3 6
5 6 6 6 6 6 6 6 5 5 5 4 4 4 3 2 3 3 3 2 2 2 2 2 1 2 1 1 1 1 0 1 7 2 3 1 1 2 3 4 5 5 6 6 7 6 6 5 9 14 13 14 13 14 14 12 9 11 11 11 12 10 6 7 6 8 10 9 10 10 11 11 10 8 7 8 7 7 6 5 5 5 4 5 6
5 6 6 5 5 5 5 5 5 4 3 3 3 3 3 2 2 2 2 2 2 2 2 2 1 1 1 0 0 0 1 1 2 8 5 7 7 7 7 5 5 5 5 5 6 5 9 9 10 11 11 12 13 14 13 13 14 12 11 11 10 6 7 7 8 8 10 11 13 13 13 12 13 12 9 6 6 7 7 5 5 6 7 9 9
6 6 5 5 5 5 5 5 6 5 4 4 4 4 3 4 3 3 3 3 3 3 3 2 2 2 1 1 2 2 2 1 2 3 6 6 7 11 9 9 8 11 11 7 8 9 9 10 11 13 14 12 9 7 7 6 4 6 10 10 7 8 8 8 8 9 10 11 12 12 13 12 10 4 7 6 5 6 7 7 7 6 7 8 8
5 4 4 5 5 6 5 5 4 5 5 4 4 5 4 4 4 4 4 4 3 3 2 2 2 2 2 2 3 2 2 2 2 3 6 6 6 3 4 5 13 13 9 6 9 6 5 6 9 12 13 16 16 14 13 11 10 10 8 8 7 7 9 9 9 9 9 10 10 10 10 1 5 5 4 5 6 7 8 9 8 8 8 7 7
4 5 5 4 4 3 4 2 3 4 4 5 5 5 5 4 4 4 5 5 4 3 3 3 3 4 4 4 4 3 3 3 4 7 7 8 7 7 6 6 6 6 6 6 8 9 9 10 11 10 9 9 8 7 7 7 7 7 6 7 8 7 7 8 8 9 9 9 8 8 2 3 4 4 5 6 5 5 5 7 8 8 7 8 7
4 4 4 3 4 3 3 4 4 4 4 5 7 7 7 6 5 4 6 6 6 5 5 4 5 5 5 5 5 5 5 4 7 9 7 7 5 7 8 7 7 7 7 8 9 9 8 7 6 6 6 4 4 5 6 7 5 7 8 8 8 7 6 6 7 8 8 8 7 7 7 6 6 6 6 7 7 7 7 6 6 7 7 6 6
3 4 4 4 3 3 3 4 4 3 3 3 4 7 7 7 6 6 4 8 6 4 5 5 6 5 5 4 5 6 6 8 12 11 9 9 9 8 8 9 9 8 10 11 9 6 5 4 4 3 4 4 5 5 5 5 5 5 5 6 5 6 6 6 7 7 6 6 6 5 4 5 6 5 6 7 6 6 7 7 6 6 6 6 6
3 3 4 5 4 4 4 4 4 4 4 3 3 2 5 7 5 4 6 3 3 4 1 3 4 5 5 5 5 1 5 6 8 10 12 11 10 10 9 8 8 7 6 5 5 5 5 4 3 4 4 6 5 5 5 5 5 5 6 5 5 5 4 5 6 4 3 3 3 3 4 5 5 6 7 6 7 7 7 6 6 6 6 5 6
3 4 4 4 3 3 3 3 2 3 3 3 3 2 2 3 7 4 3 1 0 0 1 1 2 3 2 3 6 5 6 10 13 13 13 13 12 11 10 9 8 7 4 4 4 3 3 4 5 4 4 5 5 5 4 4 5 4 4 5 5 5 4 4 4 5 3 3 3 4 3 4 4 5 3 4 5 6 7 5 4 4 4 5 5
4 4 3 2 3 2 2 3 2 2 2 2 2 2 2 2 2 4 7 8 8 9 7 3 1 1 2 3 5 5 7 10 13 13 13 14 15 13 11 12 9 7 5 4 3 4 4 4 5 6 6 5 5 5 7 7 6 5 5 5 6 6 7 2 2 4 3 3 3 4 4 4 4 3 4 5 5 5 4 4 5 5 5 4 3
4 5 4 3 2 2 2 2 2 1 1 2 2 2 3 3 3 3 1 5 6 4 3 2 4 4 3 3 5 7 8 10 10 10 11 11 12 14 11 7 6 7 6 3 3 3 4 6 6 7 7 7 7 6 6 6 7 7 6 8 8 8 7 4 5 4 4 3 3 3 3 5 4 5 6 6 5 6 6 5 5 4 3 3 3
4 5 2 9 1 1 1 1 1 1 1 1 0 1 2 2 2 2 3 3 4 2 4 6 2 3 2 2 4 4 6 8 9 9 10 10 12 12 12 6 1 1 3 4 5 5 5 6 6 6 6 5 5 5 6 8 8 7 7 6 8 7 4 3 3 4 2 3 3 4 3 3 3 4 6 7 7 6 6 5 4 4 4 3 3
2 1 5 7 1 1 1 1 1 1 1 1 1 2 1 2 3 2 2 3 4 2 1 3 2 8 6 5 2 3 6 8 9 9 9 10 11 12 3 5 3 4 3 4 5 5 5 6 6 6 6 6 7 6 7 6 8 8 8 7 5 4 4 4 3 3 2 2 2 2 5 4 4 6 6 7 7 7 6 5 4 4 3 3 2
3 2 3 3 2 1 1 0 1 3 2 2 2 1 2 2 2 3 4 4 4 4 3 3 3 3 7 2 5 2 3 8 9 9 7 8 12 6 6 5 6 6 5 5 6 6 6 6 7 7 7 7 7 7 6 7 7 7 8 7 7 4 3 3 3 2 2 2 3 4 4 5 4 5 7 7 7 7 7 6 5 4 3 4 3
3 4 4 5 4 1 1 2 2 3 6 3 2 2 3 2 2 3 4 3 4 2 4 4 4 5 5 6 8 7 7 3 4 4 6 6 2 5 4 5 6 7 6 6 6 6 6 6 7 7 7 7 7 7 6 7 5 5 4 4 5 4 4 3 3 3 3 3 3 3 4 5 4 5 6 6 7 7 6 6 6 5 4 3 2
3 6 0 5 5 5 4 2 0 2 2 3 2 2 2 3 3 3 3 3 3 3 4 5 5 6 7 8 8 9 7 6 5 5 5 5 5 5 6 5 7 7 8 7 7 7 7 6 6 7 7 7 7 7 7 5 5 4 3 3 4 4 4 4 4 3 3 4 4 4 4 4 4 4 5 6 6 6 6 5 4 4 3 2 2
1 3 4 5 4 2 1 1 2 3 1 3 2 3 2 3 3 2 3 3 3 3 3 3 5 6 7 8 8 7 6 5 4 5 5 6 6 5 5 6 6 6 7 8 7 7 7 7 7 7 7 7 8 8 7 5 4 4 4 4 5 6 6 6 6 6 6 6 6 5 5 6 5 5 5 5 5 4 4 4 3 2 2 2 2
2 2 1 2 4 4 0 2 2 3 3 2 3 3 2 3 3 3 3 3 3 3 3 5 4 5 7 7 7 7 7 5 6 6 5 5 5 5 5 5 6 6 7 7 6 7 7 7 6 6 5 6 6 6 6 5 4 5 6 5 5 5 6 6 5 6 6 6 5 5 4 4 4 3 4 4 4 4 3 3 3 3 2 2 2
2 3 3 2 1 2 4 3 3 0 2 2 2 1 2 2 2 3 4 2 3 2 2 2 4 4 8 4 8 11 6 5 6 6 6 6 5 6 5 6 7 7 5 5 6 5 5 5 5 6 6 6 6 5 4 4 5 5 6 6 6 5 5 5 5 5 5 4 5 5 4 3 3 4 4 4 2 2 3 2 2 2 2 2 1
2 3 3 1 2 2 2 2 3 3 2 1 0 0 1 1 2 2 1 3 3 3 2 2 3 4 5 4 6 9 4 5 6 6 6 6 6 4 5 5 5 7 6 6 6 5 4 4 5 4 5 5 5 5 4 4 4 5 6 6 6 7 6 5 5 4 4 4 4 3 3 3 3 2 2 3 3 3 3 3 3 2 2 2 2
2 2 1 2 1 1 2 2 2 2 1 1 2 1 1 0 0 1 1 2 2 2 2 2 3 3 3 3 4 6 6 7 6 5 6 5 5 5 4 5 5 5 6 5 5 5 4 4 4 4 4 4 5 4 4 4 4 5 6 6 6 6 6 5 5 4 4 3 3 3 3 3 3 2 2 2 3 3 3 2 2 2 2 2 1
3 2 2 2 2 1 2 2 2 2 2 2 1 1 1 1 2 2 2 1 3 3 2 2 3 3 5 4 6 5 7 7 8 7 6 5 5 5 5 5 5 5 5 5 5 6 5 4 4 4 5 4 5 4 4 4 4 4 4 4 5 5 5 4 4 3 3 2 2 2 2 2 2 2 2 2 2 2 2 2 2 3 1 2 1
2 2 1 2 0 1 0 2 2 2 1 0 1 2 2 2 3 2 2 3 3 2 2 2 3 3 4 4 5 7 7 7 6 7 7 6 6 5 5 5 5 4 4 4 5 5 5 5 5 4 4 4 4 4 4 4 4 4 3 3 4 3 3 3 3 2 2 2 1 2 2 2 2 2 2 2 2 2 2 2 2 2 2 2 2
3 2 1 1 1 1 2 2 1 2 2 2 2 3 3 3 3 3 4 4 3 3 3 4 2 3 3 4 4 4 5 5 5 5 6 7 6 5 5 5 4 4 4 4 4 4 5 5 5 5 5 5 4 4 3 2 2 2 2 3 3 3 2 2 2 2 2 1 1 1 1 1 2 2 0 1 2 2 2 2 2 2 1 2 1
3 3 1 1 1 0 2 2 4 3 2 3 3 3 3 2 3 2 3 3 3 3 3 4 3 4 4 4 5 3 4 3 4 5 5 4 4 4 4 4 4 4 4 4 4 4 4 4 4 4 4 4 4 4 3 3 3 3 3 3 5 5 7 8 1 1 0 0 1 1 2 1 2 2 2 2 2 2 2 2 2 2 2 1 0
4 3 2 2 1 1 1 2 0 2 3 3 4 3 3 3 2 2 3 3 3 3 3 3 3 3 4 4 4 4 4 4 3 3 3 2 3 3 3 4 3 4 3 4 4 4 3 3 3 3 2 2 3 3 3 4 4 4 4 5 7 10 8 9 6 3 5 1 2 1 1 2 2 2 2 2 2 2 2 1 2 2 2 1 1
4 4 3 2 2 1 1 1 0 1 2 2 3 3 2 2 2 2 2 2 2 2 3 3 3 4 4 4 4 4 4 3 2 2 3 3 2 3 3 3 3 3 3 3 3 3 3 3 3 3 4 4 4 4 4 4 4 5 5 6 9 9 9 7 4 6 6 1 2 1 2 2 2 2 2 2 2 2 2 2 2 2 2 2 2
5 5 4 3 2 1 2 3 2 1 1 1 2 2 2 1 2 2 2 2 2 2 2 2 3 3 3 3 3 3 3 3 3 3 4 3 2 2 2 2 2 2 2 3 3 3 3 3 3 4 4 5 5 5 5 5 5 5 6 7 7 8 8 8 4 6 9 7 2 2 2 2 2 2 2 2 2 2 4 2 2 1 1 2 2
Wind_Direction
167 164 154 155 160 168 170 179 174 164 166 172 173 170 168 169 166 167 157 158 154 159 156 157 154 155 157 163 162 157 149 154 154 152 147 145 139 134 155 172 169 161 158 154 154 162 172 178 178 189 183 203 169 173 174 170 183 188 168 189 154 161 211 172 148 142 138 152 157 161 161 168 175 179 175 164 165 194 220 169 155 188 207 195 175
163 160 148 158 171 166 168 167 167 160 170 174 172 166 169 171 168 165 161 152 163 157 156 154 151 162 159 162 158 152 154 145 162 157 140 134 131 143 152 166 155 130 157 155 144 160 159 173 171 172 186 178 157 175 169 182 180 181 171 175 160 156 205 169 142 154 150 162 168 163 160 185 181 187 179 181 173 191 197 189 180 203 209 212 195
155 157 148 156 170 170 166 161 155 158 170 176 171 168 169 168 167 166 157 153 158 159 148 156 158 155 161 161 157 155 150 142 148 151 142 155 151 141 143 136 138 140 148 147 151 148 161 163 163 164 173 165 162 174 184 195 181 177 168 178 155 153 179 171 149 152 164 168 173 171 171 184 207 183 193 183 189 193 202 199 200 203 219 208 228
143 140 132 153 161 172 164 160 157 157 169 175 170 169 167 165 170 166 157 155 155 151 153 159 153 156 159 161 153 155 147 150 161 161 153 145 152 148 144 140 138 140 135 136 131 156 160 161 159 164 172 168 171 180 194 184 183 170 174 178 169 165 158 177 193 152 170 165 185 193 173 180 208 202 192 188 191 201 210 208 206 213 211 206 224
157 158 155 155 156 159 157 146 131 106 96 173 168 165 163 163 167 163 154 154 150 152 154 154 158 154 160 163 157 157 157 157 159 153 143 155 134 141 148 133 132 125 115 103 104 112 152 167 158 164 171 168 171 186 182 184 187 172 180 179 185 168 170 187 198 190 176 179 172 206 170 189 198 209 192 196 190 205 212 220 212 218 210 217 203
163 167 164 164 160 152 142 140 146 160 148 151 158 159 158 157 157 155 152 147 147 149 149 156 157 154 164 161 156 156 151 153 164 167 157 156 152 139 138 141 140 135 130 129 115 105 118 152 153 164 167 173 167 193 177 182 190 181 188 190 180 169 185 191 216 208 216 202 181 192 193 191 199 201 204 203 204 203 210 213 217 221 212 206 188
165 165 161 167 162 143 144 152 148 133 136 142 149 153 152 146 147 143 146 142 143 142 142 142 146 150 146 149 150 149 149 152 137 157 165 167 164 160 159 157 150 138 145 134 121 110 105 127 156 163 171 176 176 181 176 184 192 200 190 194 210 166 187 202 208 207 216 228 206 197 200 206 206 203 207 207 211 215 213 214 216 209 208 203 206
156 157 153 146 135 140 152 141 135 138 134 140 145 141 141 143 141 138 137 136 135 136 136 132 134 130 130 141 128 137 143 160 153 157 163 153 164 161 163 187 174 161 157 153 128 116 110 116 137 162 172 175 178 183 187 188 184 199 193 190 213 201 208 209 214 218 214 221 229 211 207 205 199 212 214 201 216 217 219 218 219 213 206 205 214
155 151 145 142 141 153 155 148 143 124 120 122 126 127 129 131 138 138 140 136 140 138 140 141 140 134 130 122 124 106 95 53 39 0 1 154 149 159 170 179 194 181 180 165 157 145 129 114 123 110 70 49 38 31 34 28 217 200 197 214 212 219 226 226 217 224 225 224 218 227 225 216 209 205 210 205 213 224 216 219 228 224 211 209 214
134 140 137 134 139 142 137 132 131 130 132 128 111 112 114 117 119 123 127 130 131 134 141 146 147 148 139 123 103 77 54 46 3 344 339 336 178 128 152 175 195 180 196 164 164 168 141 120 87 71 86 85 82 69 89 266 316 327 298 203 209 214 212 218 219 217 226 221 224 225 223 225 223 213 219 214 219 227 230 220 229 228 220 218 218
127 124 125 117 96 121 135 133 135 133 127 101 94 93 91 91 95 97 97 93 90 95 122 132 132 120 115 103 86 69 50 25 351 358 350 341 326 185 168 139 174 172 179 178 172 171 174 144 132 144 150 154 170 172 180 201 227 265 313 325 325 287 218 217 216 229 225 217 216 218 226 231 229 229 222 226 220 225 228 229 227 233 226 218 223
70 87 102 97 82 73 63 88 110 108 105 96 86 71 73 72 71 70 72 79 82 88 98 102 100 94 91 87 80 72 67 11 353 359 2 349 342 318 193 153 166 173 164 184 176 168 165 167 160 149 179 72 144 166 187 201 221 244 275 295 294 298 306 294 266 228 228 246 240 232 235 236 241 228 234 234 234 220 228 235 240 242 245 235 234
72 70 72 81 88 88 93 76 70 80 81 70 72 79 74 71 65 64 69 80 96 103 104 105 103 97 92 90 83 73 62 20 357 1 1 355 347 318 239 143 194 172 168 185 46 84 146 157 171 215 115 112 258 236 202 174 193 208 249 276 283 273 274 282 288 300 301 261 254 255 248 256 256 252 241 243 243 247 231 238 242 242 245 255 253
60 59 60 71 75 76 85 88 82 85 89 90 85 83 86 88 94 102 111 113 108 103 99 95 97 98 96 93 85 67 53 10 4 9 7 351 340 314 52 97 319 116 182 171 215 211 218 242 230 216 207 221 249 248 258 250 176 182 202 216 228 219 234 246 253 264 262 270 272 264 257 252 257 262 267 245 237 242 248 246 242 242 246 256 273
60 53 55 50 64 73 79 78 65 62 76 83 82 84 82 79 82 82 79 76 78 82 86 82 80 92 94 93 87 73 48 6 11 10 9 348 331 300 83 250 185 155 139 132 185 177 209 218 248 254 244 250 248 46 267 247 257 245 242 236 236 238 211 208 211 218 220 230 247 261 267 263 262 262 265 244 237 250 259 268 271 265 267 120 96
67 65 59 48 49 62 73 79 80 78 74 72 74 67 63 63 66 69 67 64 65 66 69 74 80 83 90 93 91 79 55 23 15 15 6 357 317 265 70 247 298 248 206 192 238 202 216 218 236 240 248 260 96 77 358 312 266 255 251 250 252 246 247 146 127 175 252 253 248 262 289 23 14 342 348 308 248 249 236 155 222 223 228 219 242
53 53 53 58 58 59 63 70 74 77 84 87 86 83 74 53 55 75 97 88 70 64 63 64 67 72 73 84 88 78 60 26 19 19 13 359 334 35 301 236 156 204 274 323 251 256 254 284 281 285 259 327 88 104 68 319 256 255 253 253 253 251 252 178 142 163 221 254 280 285 280 279 274 268 268 283 290 253 234 240 235 225 235 236 233
55 58 58 53 57 57 59 64 67 66 63 66 71 79 79 69 51 59 92 98 93 94 87 73 68 69 65 52 57 82 68 41 24 24 14 6 341 324 293 271 250 258 224 231 284 270 82 54 338 313 336 61 22 26 1 275 254 252 257 256 253 252 253 234 170 189 142 214 249 263 268 267 268 258 244 234 228 237 233 242 251 235 241 238 252
45 47 50 54 57 58 61 67 70 70 72 69 71 77 77 78 76 64 80 95 110 115 116 114 105 91 89 90 34 68 92 73 42 27 16 11 356 327 325 301 270 287 292 251 239 273 197 158 123 34 39 39 40 14 346 311 276 260 257 259 258 256 252 250 222 211 206 213 222 216 231 215 226 230 224 209 219 226 232 245 254 239 245 251 248
49 50 52 53 54 56 59 63 68 72 77 79 78 83 88 85 76 76 70 79 81 85 92 92 99 99 104 99 86 58 68 80 62 38 24 10 5 341 335 344 333 330 294 300 287 258 253 193 116 77 63 45 30 14 343 327 300 291 274 256 257 256 258 255 247 237 227 226 226 214 226 220 209 212 211 180 202 214 227 235 246 249 244 255 249
63 55 58 60 58 56 53 52 56 59 62 70 73 72 68 67 65 62 63 54 61 71 81 104 107 111 101 98 95 71 39 33 86 54 37 19 8 357 345 14 353 330 316 296 280 276 255 255 116 78 69 47 24 4 347 324 306 292 286 263 268 1 334 276 245 188 240 240 236 228 220 216 207 211 206 200 197 201 215 228 239 241 244 250 250
68 76 76 73 67 61 56 52 49 48 42 44 51 56 55 59 60 66 69 80 79 73 62 73 105 112 119 113 93 103 93 35 35 95 52 32 18 4 351 37 13 319 307 290 284 274 281 286 287 49 23 6 351 336 313 298 292 277 266 288 313 323 326 316 286 259 237 240 237 229 221 215 212 208 207 201 200 201 208 212 223 239 247 264 268
53 59 66 77 79 75 68 62 60 54 55 52 52 54 55 59 62 61 67 82 82 88 75 65 89 99 130 125 119 114 126 142 47 47 81 21 50 44 3 343 347 296 295 293 293 287 285 286 32 20 353 339 328 320 306 287 271 251 257 272 283 292 298 288 279 281 268 251 247 247 246 237 227 212 201 197 190 180 187 201 201 205 195 62 36
60 60 56 54 60 63 66 67 62 61 55 66 64 60 54 62 63 60 66 68 83 82 87 92 95 95 83 104 109 119 193 121 133 112 93 116 309 288 230 240 298 322 322 289 289 294 285 332 357 344 326 316 309 307 305 292 271 270 271 262 263 271 275 267 256 255 267 267 246 239 240 238 231 223 202 196 186 177 183 172 171 173 156 119 88
55 59 59 58 57 63 61 61 63 58 61 55 60 68 74 74 98 103 126 114 112 108 106 93 80 63 59 11 12 132 75 50 125 154 165 166 197 210 220 224 233 255 276 283 284 317 4 335 308 293 288 288 282 279 276 270 260 256 260 269 272 265 253 247 246 243 244 245 245 246 244 239 244 246 242 204 148 140 134 125 116 102 93 86 78
55 54 54 47 43 52 59 61 55 49 44 53 52 49 41 48 46 50 53 55 50 50 48 39 45 36 14 22 8 15 9 17 32 114 169 184 190 195 223 209 217 215 235 282 306 292 278 272 271 265 262 254 254 262 270 277 295 280 264 251 260 254 247 242 240 240 237 240 241 245 250 258 259 95 90 108 152 171 165 153 142 132 131 125 113
59 56 58 68 63 52 42 32 44 49 32 35 45 40 33 33 39 32 31 28 37 37 35 35 20 25 10 15 8 355 14 23 38 43 12 357 350 316 247 213 203 220 232 234 222 243 261 262 289 290 284 284 277 269 265 265 257 240 226 214 230 245 243 234 235 238 239 240 245 245 248 216 91 106 140 171 190 180 171 160 157 150 144 133 122
50 59 56 53 56 71 76 272 301 69 50 40 41 36 38 27 32 42 21 14 1 14 17 23 16 11 1 360 359 356 7 18 46 18 358 349 339 329 322 321 325 342 320 335 336 313 297 276 258 249 248 246 249 252 250 246 253 269 280 287 278 261 250 257 259 255 254 252 249 252 194 148 178 176 188 194 184 163 159 170 157 144 144 141 132
51 59 63 71 73 57 50 48 44 48 68 73 63 43 25 9 3 33 56 24 14 357 352 5 17 8 349 357 350 354 352 12 34 19 351 340 321 322 324 325 330 315 0 18 312 291 276 273 283 283 278 275 279 283 286 287 289 292 292 286 283 282 267 250 240 239 241 242 239 228 219 214 211 195 185 195 177 161 165 153 142 145 143 145 134
68 58 53 51 50 51 50 58 50 52 60 73 101 103 70 57 25 355 33 62 48 30 337 357 0 345 345 347 5 346 345 343 354 342 333 325 311 291 285 287 285 286 303 304 286 287 283 283 280 283 295 300 303 302 299 300 300 293 285 288 280 278 286 282 271 262 252 245 238 214 211 204 205 192 188 189 163 150 151 151 139 138 141 150 142
57 65 62 55 356 10 45 42 38 49 44 41 30 75 131 89 57 34 349 360 1 9 336 277 291 315 327 324 348 340 264 309 336 335 327 315 308 303 298 293 285 279 275 293 271 265 285 296 303 309 310 315 308 300 299 295 296 294 288 283 279 276 273 271 275 273 257 243 246 229 218 205 202 197 189 172 151 147 140 144 139 144 144 147 145
59 54 43 47 17 16 59 43 55 55 60 40 42 22 22 128 120 130 217 198 183 268 335 289 330 344 343 325 335 319 14 352 340 324 317 313 308 310 305 298 293 287 281 238 265 288 302 315 321 316 313 304 301 300 291 282 278 274 278 281 279 274 267 264 255 253 250 247 234 217 209 205 208 197 173 134 126 133 139 141 143 145 153 155 141
49 53 66 89 94 64 27 52 30 42 41 71 74 28 15 13 24 146 179 211 208 197 188 210 229 291 338 49 50 0 322 320 313 313 312 313 312 310 312 297 280 257 220 229 279 314 321 314 310 311 309 303 300 299 295 289 280 274 270 266 268 271 271 264 136 255 252 247 245 233 216 197 181 136 114 113 115 114 109 107 107 119 115 107 103
38 22 32 23 62 43 71 45 55 57 65 48 31 55 43 21 43 6 91 165 185 225 266 230 171 171 148 96 27 348 332 316 310 298 294 294 299 297 296 296 284 278 283 327 330 317 313 318 314 313 312 311 307 305 299 293 291 290 286 280 278 278 278 259 261 259 258 248 242 233 213 198 166 144 138 122 112 106 107 107 105 111 124 133 140
125 124 346 315 346 104 60 55 46 43 36 351 43 29 44 45 21 33 30 6 2 13 151 166 199 56 93 168 33 320 312 307 300 297 291 289 286 288 283 274 269 207 246 309 332 320 318 312 312 309 307 307 306 302 298 299 302 300 293 288 287 289 294 286 276 281 268 253 236 213 187 140 127 119 126 129 128 120 115 119 129 138 133 133 132
72 80 158 204 267 42 350 50 39 23 319 41 2 9 351 20 354 15 32 20 357 340 10 27 97 146 166 176 204 322 311 307 295 291 287 282 290 290 342 23 8 11 358 345 340 331 319 316 315 318 319 321 323 321 321 320 317 309 312 317 311 295 291 286 286 279 263 250 214 144 121 127 132 127 114 107 104 112 120 125 123 120 125 126 121
359 35 3 19 338 354 346 351 51 20 331 277 289 318 335 347 13 357 7 13 14 347 339 39 4 122 179 74 38 328 282 288 284 283 283 274 275 306 34 18 20 12 11 7 359 347 342 341 338 334 339 339 339 337 337 330 328 328 334 326 330 336 340 344 344 289 242 194 156 123 129 128 127 123 125 123 126 128 133 133 129 125 111 90 113
32 10 5 350 323 254 213 272 78 197 239 285 322 316 322 338 343 352 3 11 8 343 353 27 28 14 9 3 20 5 334 325 260 223 225 224 14 24 20 26 15 17 4 8 1 351 349 351 353 350 349 350 350 350 351 348 344 345 344 10 24 41 32 48 53 60 75 110 105 111 113 114 119 132 135 135 140 139 132 128 125 116 111 132 183
131 112 356 271 281 327 334 335 168 277 307 280 298 313 311 310 323 342 350 6 3 4 9 14 14 14 13 360 358 341 338 22 15 20 18 18 15 16 22 18 19 15 8 9 9 3 4 0 1 360 3 1 2 4 4 360 5 11 12 31 39 47 50 57 69 74 81 77 81 82 81 73 71 72 79 83 87 93 101 105 115 126 136 140 143
309 134 140 244 242 142 309 329 302 268 286 301 294 305 290 308 315 329 342 1 7 2 14 15 18 15 19 8 358 341 356 14 16 16 19 15 19 15 16 22 20 19 13 14 7 11 4 10 11 15 15 16 18 21 22 21 26 42 50 55 61 53 40 38 36 37 42 48 53 53 56 59 58 62 66 75 87 102 114 125 120 120 118 121 128
338 46 351 69 19 304 170 321 326 344 312 304 295 271 359 318 319 326 351 346 3 6 21 18 15 18 45 23 323 309 302 3 11 19 21 20 18 20 14 20 22 18 13 10 4 2 4 12 20 21 27 29 31 35 38 42 53 63 65 64 65 66 63 56 49 42 32 34 42 57 66 65 75 83 90 94 103 113 119 119 116 120 128 123 140
321 346 350 7 202 327 339 352 358 79 265 296 293 327 298 300 337 354 1 354 14 12 27 21 13 36 87 27 333 303 304 31 8 16 18 19 20 19 18 19 21 15 10 9 7 2 5 16 22 27 26 24 27 36 39 43 52 64 66 68 68 65 66 65 63 63 59 53 34 26 38 65 81 85 95 115 121 111 113 117 116 117 125 143 154
324 336 353 352 349 19 345 4 350 355 348 304 238 272 282 310 347 339 12 25 24 30 30 23 21 22 77 102 294 295 22 34 28 21 23 18 19 14 20 22 19 17 16 15 14 6 9 24 31 32 31 32 32 34 42 44 53 65 66 65 66 67 64 60 59 63 73 76 75 67 59 61 71 97 117 123 114 118 110 113 120 123 122 129 130
226 265 336 348 354 102 350 358 33 34 65 32 329 355 320 42 70 17 35 55 61 54 44 41 40 44 39 71 40 41 44 42 37 28 25 22 21 17 21 23 19 17 19 20 14 12 21 34 40 39 40 43 45 48 48 52 58 69 74 75 72 69 72 64 60 54 58 67 74 78 77 80 81 83 77 76 87 96 107 110 112 122 134 124 120
242 268 321 337 359 348 95 80 69 93 131 181 197 158 176 146 99 84 78 81 76 65 57 54 58 53 53 52 48 44 45 46 46 40 31 27 25 25 27 27 22 22 23 21 10 2 7 21 44 49 49 55 56 61 61 59 55 63 66 63 72 68 60 57 60 58 58 57 63 71 90 96 97 93 97 93 98 109 112 116 101 101 103 94 111
228 266 330 335 350 132 275 72 90 101 91 52 146 140 132 126 123 117 106 94 78 71 73 66 66 61 59 52 46 44 43 41 43 40 36 33 32 33 35 33 34 32 30 17 9 7 9 8 20 27 29 37 36 51 68 64 62 67 60 50 46 50 52 50 40 38 45 38 63 97 97 110 98 95 58 123 124 90 79 86 115 123 93 86 64
233 250 279 300 47 119 90 101 77 52 71 90 114 129 137 126 118 104 72 59 74 86 84 75 68 65 57 51 43 39 37 40 36 35 38 37 38 42 40 30 26 29 23 22 12 14 12 12 14 18 15 8 10 2 12 28 49 55 53 54 53 37 44 43 45 28 37 8 309 187 141 138 108 119 141 103 92 86 98 106 111 114 104 90 93
217 232 256 316 212 148 149 137 125 186 106 111 118 125 123 122 111 95 102 119 106 93 90 80 73 67 55 45 46 48 46 42 45 45 44 45 45 40 31 29 33 33 25 20 24 19 16 12 9 9 11 10 3 4 6 14 24 20 32 44 33 13 0 339 345 31 42 235 246 143 158 144 124 125 110 104 90 98 114 107 116 106 119 131 122
222 217 220 232 24 170 145 116 42 82 102 116 133 153 131 131 120 111 99 94 94 90 80 86 81 69 66 64 64 72 74 68 64 62 59 50 42 44 42 35 39 41 32 21 19 15 11 15 5 8 8 14 16 11 30 27 23 35 30 35 22 15 11 1 342 29 331 286 124 106 82 72 60 70 88 100 112 121 103 107 87 81 78 89 83
223 213 217 190 210 125 192 171 204 133 123 135 121 120 132 128 125 115 105 113 117 110 100 91 86 86 89 90 83 83 83 79 74 72 68 66 54 53 43 38 34 37 34 31 25 15 17 17 13 13 18 19 21 27 33 37 32 30 29 22 10 11 6 347 351 349 314 121 104 107 95 107 116 126 118 108 88 85 101 96 101 103 81 72 80
208 211 207 212 222 158 224 192 166 182 165 150 136 125 132 135 139 146 149 134 125 114 111 111 107 99 95 91 89 92 92 92 91 82 75 73 67 57 47 43 37 41 47 32 28 33 26 15 16 15 22 23 21 24 35 34 37 31 24 21 21 19 17 4 6 358 348 337 107 107 120 98 105 108 126 125 132 76 41 68 101 97 103 87 69